Time,TemperatureF,DewpointF,PressureIn,WindDirection,WindDirectionDegrees,WindSpeedMPH,WindSpeedGustMPH,Humidity,HourlyPrecipIn,Conditions,Clouds,dailyrainin,SoftwareType,DateUTC
2013-06-16 00:01:00,60.0,32.0,-100.00,SSW,212,6.0,11.0,35,-99.99,,,-99.99,,2013-06-16 07:01:00,
2013-06-16 00:11:00,60.0,32.0,-100.00,SSW,212,6.0,11.0,35,-99.99,,,-99.99,,2013-06-16 07:11:00,
2013-06-16 00:22:00,60.0,32.0,-100.00,SSW,212,6.0,11.0,35,-99.99,,,-99.99,,2013-06-16 07:22:00,
2013-06-16 00:32:00,60.0,32.0,-100.00,SSW,212,6.0,11.0,35,-99.99,,,-99.99,,2013-06-16 07:32:00,
2013-06-16 00:43:00,53.0,35.0,-100.00,SSE,147,6.0,9.0,51,-99.99,,,-99.99,,2013-06-16 07:43:00,
2013-06-16 00:53:00,53.0,35.0,-100.00,SSE,147,6.0,9.0,51,-99.99,,,-99.99,,2013-06-16 07:53:00,
2013-06-16 01:02:00,53.0,35.0,-100.00,East,93,3.0,6.0,50,-99.99,,,-99.99,,2013-06-16 08:02:00,
2013-06-16 01:33:00,50.0,34.0,-100.00,ESE,123,6.0,11.0,54,-99.99,,,-99.99,,2013-06-16 08:33:00,
2013-06-16 01:43:00,50.0,34.0,-100.00,ESE,123,6.0,11.0,54,-99.99,,,-99.99,,2013-06-16 08:43:00,
2013-06-16 01:54:00,50.0,34.0,-100.00,ESE,123,6.0,11.0,54,-99.99,,,-99.99,,2013-06-16 08:54:00,
2013-06-16 02:01:00,50.0,34.0,-100.00,ESE,123,6.0,11.0,54,-99.99,,,-99.99,,2013-06-16 09:01:00,
2013-06-16 02:22:00,49.0,32.0,-100.00,North,-999,-999.0,-999.0,50,-99.99,,,-99.99,,2013-06-16 09:22:00,
2013-06-16 02:33:00,49.0,31.0,-100.00,ENE,78,5.0,7.0,50,-99.99,,,-99.99,,2013-06-16 09:33:00,
2013-06-16 02:42:00,49.0,31.0,-100.00,ENE,78,5.0,7.0,50,-99.99,,,-99.99,,2013-06-16 09:42:00,
2013-06-16 02:52:00,48.0,31.0,-100.00,NNE,31,1.0,5.0,52,-99.99,,,-99.99,,2013-06-16 09:52:00,
2013-06-16 03:01:00,46.0,32.0,-100.00,East,93,2.0,3.0,58,-99.99,,,-99.99,,2013-06-16 10:01:00,
2013-06-16 03:53:00,44.0,33.0,-100.00,NNE,24,0.0,3.0,65,-99.99,,,-99.99,,2013-06-16 10:53:00,
2013-06-16 04:02:00,44.0,33.0,-100.00,NNE,24,0.0,3.0,65,-99.99,,,-99.99,,2013-06-16 11:02:00,
2013-06-16 04:53:00,44.0,30.0,-100.00,ENE,73,5.0,7.0,58,-99.99,,,-99.99,,2013-06-16 11:53:00,
2013-06-16 05:01:00,44.0,30.0,-100.00,ENE,73,5.0,7.0,58,-99.99,,,-99.99,,2013-06-16 12:01:00,
2013-06-16 05:32:00,44.0,34.0,-100.00,SE,130,1.0,3.0,69,-99.99,,,-99.99,,2013-06-16 12:32:00,
2013-06-16 05:42:00,44.0,34.0,-100.00,ESE,102,3.0,5.0,69,-99.99,,,-99.99,,2013-06-16 12:42:00,
2013-06-16 05:53:00,44.0,34.0,-100.00,ESE,102,3.0,5.0,69,-99.99,,,-99.99,,2013-06-16 12:53:00,
2013-06-16 06:42:00,39.0,33.0,-100.00,WSW,256,2.0,7.0,80,-99.99,,,-99.99,,2013-06-16 13:42:00,
2013-06-16 06:53:00,42.0,36.0,-100.00,South,176,0.0,1.0,78,-99.99,,,-99.99,,2013-06-16 13:53:00,
2013-06-16 07:01:00,42.0,36.0,-100.00,South,176,0.0,1.0,78,-99.99,,,-99.99,,2013-06-16 14:01:00,
2013-06-16 07:34:00,46.0,35.0,-100.00,SE,126,2.0,4.0,64,-99.99,,,-99.99,,2013-06-16 14:34:00,
2013-06-16 07:43:00,48.0,34.0,-100.00,ESE,119,3.0,5.0,58,-99.99,,,-99.99,,2013-06-16 14:43:00,
2013-06-16 07:52:00,48.0,34.0,-100.00,ESE,119,3.0,5.0,58,-99.99,,,-99.99,,2013-06-16 14:52:00,
2013-06-16 08:02:00,50.0,37.0,-100.00,South,191,0.0,2.0,61,-99.99,,,-99.99,,2013-06-16 15:02:00,
2013-06-16 08:12:00,50.0,37.0,-100.00,South,191,0.0,2.0,61,-99.99,,,-99.99,,2013-06-16 15:12:00,
2013-06-16 08:22:00,52.0,39.0,-100.00,SSE,154,0.0,3.0,62,-99.99,,,-99.99,,2013-06-16 15:22:00,
2013-06-16 08:33:00,52.0,39.0,-100.00,SSE,154,0.0,3.0,62,-99.99,,,-99.99,,2013-06-16 15:33:00,
2013-06-16 09:01:00,55.0,40.0,-100.00,SW,223,0.0,2.0,57,-99.99,,,-99.99,,2013-06-16 16:01:00,
2013-06-16 09:22:00,59.0,38.0,-100.00,South,181,2.0,4.0,45,-99.99,,,-99.99,,2013-06-16 16:22:00,
2013-06-16 09:33:00,61.0,36.0,-100.00,SSE,165,1.0,5.0,40,-99.99,,,-99.99,,2013-06-16 16:33:00,
2013-06-16 09:43:00,61.0,36.0,-100.00,SSE,165,1.0,5.0,40,-99.99,,,-99.99,,2013-06-16 16:43:00,
2013-06-16 09:53:00,61.0,36.0,-100.00,SSE,165,1.0,5.0,40,-99.99,,,-99.99,,2013-06-16 16:53:00,
2013-06-16 10:11:00,66.0,31.0,-100.00,North,-999,-999.0,-999.0,26,-99.99,,,-99.99,,2013-06-16 17:11:00,
2013-06-16 10:22:00,66.0,31.0,-100.00,North,-999,-999.0,-999.0,26,-99.99,,,-99.99,,2013-06-16 17:22:00,
2013-06-16 10:34:00,66.0,30.0,-100.00,SSE,154,3.0,6.0,26,-99.99,,,-99.99,,2013-06-16 17:34:00,
2013-06-16 10:43:00,68.0,27.0,-100.00,SE,145,2.0,6.0,21,-99.99,,,-99.99,,2013-06-16 17:43:00,
2013-06-16 10:53:00,71.0,29.0,-100.00,ESE,107,1.0,4.0,21,-99.99,,,-99.99,,2013-06-16 17:53:00,
2013-06-16 11:02:00,71.0,27.0,-100.00,SSW,192,1.0,5.0,19,-99.99,,,-99.99,,2013-06-16 18:02:00,
2013-06-16 11:12:00,71.0,27.0,-100.00,SSW,192,1.0,5.0,19,-99.99,,,-99.99,,2013-06-16 18:12:00,
2013-06-16 11:22:00,72.0,30.0,-100.00,SE,144,1.0,3.0,21,-99.99,,,-99.99,,2013-06-16 18:22:00,
2013-06-16 11:33:00,72.0,30.0,-100.00,SE,144,1.0,3.0,21,-99.99,,,-99.99,,2013-06-16 18:33:00,
2013-06-16 11:43:00,72.0,30.0,-100.00,SE,144,1.0,3.0,21,-99.99,,,-99.99,,2013-06-16 18:43:00,
2013-06-16 12:11:00,74.0,23.0,-100.00,North,-999,-999.0,-999.0,15,-99.99,,,-99.99,,2013-06-16 19:11:00,
2013-06-16 12:22:00,74.0,23.0,-100.00,WNW,299,2.0,6.0,15,-99.99,,,-99.99,,2013-06-16 19:22:00,
2013-06-16 12:33:00,74.0,23.0,-100.00,WNW,299,2.0,6.0,15,-99.99,,,-99.99,,2013-06-16 19:33:00,
2013-06-16 12:43:00,74.0,23.0,-100.00,WNW,299,2.0,6.0,15,-99.99,,,-99.99,,2013-06-16 19:43:00,
2013-06-16 12:53:00,77.0,26.0,-100.00,North,-999,-999.0,-999.0,15,-99.99,,,-99.99,,2013-06-16 19:53:00,
2013-06-16 13:02:00,77.0,26.0,-100.00,NW,319,4.0,13.0,15,-99.99,,,-99.99,,2013-06-16 20:02:00,
2013-06-16 13:11:00,77.0,26.0,-100.00,NW,319,4.0,13.0,15,-99.99,,,-99.99,,2013-06-16 20:11:00,
2013-06-16 13:22:00,77.0,26.0,-100.00,NW,319,4.0,13.0,15,-99.99,,,-99.99,,2013-06-16 20:22:00,
2013-06-16 13:33:00,77.0,22.0,-100.00,North,-999,-999.0,-999.0,13,-99.99,,,-99.99,,2013-06-16 20:33:00,
2013-06-16 13:43:00,77.0,22.0,-100.00,WSW,247,9.0,17.0,13,-99.99,,,-99.99,,2013-06-16 20:43:00,
2013-06-16 14:11:00,77.0,26.0,-100.00,WSW,254,11.0,17.0,15,-99.99,,,-99.99,,2013-06-16 21:11:00,
2013-06-16 14:21:00,77.0,26.0,-100.00,WSW,254,11.0,17.0,15,-99.99,,,-99.99,,2013-06-16 21:21:00,
2013-06-16 14:32:00,77.0,26.0,-100.00,WSW,254,11.0,17.0,15,-99.99,,,-99.99,,2013-06-16 21:32:00,
2013-06-16 15:12:00,77.0,34.0,-100.00,WSW,246,16.0,27.0,21,-99.99,,,-99.99,,2013-06-16 22:12:00,
2013-06-16 15:52:00,77.0,37.0,-100.00,WSW,254,14.0,22.0,24,-99.99,,,-99.99,,2013-06-16 22:52:00,
2013-06-16 16:11:00,76.0,37.0,-100.00,WSW,253,17.0,30.0,24,-99.99,,,-99.99,,2013-06-16 23:11:00,
2013-06-16 16:22:00,76.0,37.0,-100.00,WSW,253,17.0,30.0,24,-99.99,,,-99.99,,2013-06-16 23:22:00,
2013-06-16 16:32:00,76.0,37.0,-100.00,WSW,253,17.0,30.0,24,-99.99,,,-99.99,,2013-06-16 23:32:00,
2013-06-16 16:42:00,76.0,37.0,-100.00,WSW,253,17.0,30.0,24,-99.99,,,-99.99,,2013-06-16 23:42:00,
2013-06-16 16:52:00,76.0,36.0,-100.00,WSW,247,15.0,27.0,23,-99.99,,,-99.99,,2013-06-16 23:52:00,
2013-06-16 17:01:00,76.0,36.0,-100.00,WSW,247,15.0,27.0,23,-99.99,,,-99.99,,2013-06-17 00:01:00,
2013-06-16 17:11:00,76.0,36.0,-100.00,WSW,247,15.0,27.0,23,-99.99,,,-99.99,,2013-06-17 00:11:00,
2013-06-16 17:22:00,76.0,36.0,-100.00,WSW,247,15.0,27.0,23,-99.99,,,-99.99,,2013-06-17 00:22:00,
2013-06-16 17:32:00,75.0,31.0,-100.00,WSW,239,13.0,23.0,20,-99.99,,,-99.99,,2013-06-17 00:32:00,
2013-06-16 17:43:00,75.0,31.0,-100.00,WSW,239,13.0,23.0,20,-99.99,,,-99.99,,2013-06-17 00:43:00,
2013-06-16 17:52:00,75.0,36.0,-100.00,WSW,239,11.0,21.0,24,-99.99,,,-99.99,,2013-06-17 00:52:00,
2013-06-16 18:02:00,75.0,36.0,-100.00,WSW,239,11.0,21.0,24,-99.99,,,-99.99,,2013-06-17 01:02:00,
2013-06-16 18:11:00,75.0,32.0,-100.00,WSW,243,12.0,23.0,21,-99.99,,,-99.99,,2013-06-17 01:11:00,
2013-06-16 18:22:00,75.0,32.0,-100.00,WSW,243,12.0,23.0,21,-99.99,,,-99.99,,2013-06-17 01:22:00,
2013-06-16 18:32:00,75.0,32.0,-100.00,WSW,243,12.0,23.0,21,-99.99,,,-99.99,,2013-06-17 01:32:00,
2013-06-16 18:43:00,74.0,31.0,-100.00,North,-999,-999.0,-999.0,21,-99.99,,,-99.99,,2013-06-17 01:43:00,
2013-06-16 18:53:00,74.0,32.0,-100.00,WSW,246,13.0,22.0,21,-99.99,,,-99.99,,2013-06-17 01:53:00,
2013-06-16 19:02:00,73.0,34.0,-100.00,SW,236,15.0,26.0,24,-99.99,,,-99.99,,2013-06-17 02:02:00,
2013-06-16 19:11:00,73.0,34.0,-100.00,SW,236,15.0,26.0,24,-99.99,,,-99.99,,2013-06-17 02:11:00,
2013-06-16 19:22:00,72.0,34.0,-100.00,WSW,243,15.0,22.0,25,-99.99,,,-99.99,,2013-06-17 02:22:00,
2013-06-16 19:34:00,72.0,34.0,-100.00,WSW,243,15.0,22.0,25,-99.99,,,-99.99,,2013-06-17 02:34:00,
2013-06-16 19:43:00,72.0,34.0,-100.00,WSW,243,15.0,22.0,25,-99.99,,,-99.99,,2013-06-17 02:43:00,
2013-06-16 20:02:00,69.0,36.0,-100.00,West,260,9.0,15.0,30,-99.99,,,-99.99,,2013-06-17 03:02:00,
2013-06-16 20:12:00,69.0,35.0,-100.00,WSW,250,8.0,17.0,29,-99.99,,,-99.99,,2013-06-17 03:12:00,
2013-06-16 20:22:00,69.0,35.0,-100.00,WSW,250,8.0,17.0,29,-99.99,,,-99.99,,2013-06-17 03:22:00,
2013-06-16 20:33:00,69.0,35.0,-100.00,WSW,250,8.0,17.0,29,-99.99,,,-99.99,,2013-06-17 03:33:00,
2013-06-16 21:02:00,68.0,33.0,-100.00,WSW,241,17.0,25.0,27,-99.99,,,-99.99,,2013-06-17 04:02:00,
2013-06-16 21:12:00,67.0,33.0,-100.00,WSW,243,17.0,24.0,28,-99.99,,,-99.99,,2013-06-17 04:12:00,
2013-06-16 21:22:00,67.0,33.0,-100.00,WSW,243,17.0,24.0,28,-99.99,,,-99.99,,2013-06-17 04:22:00,
2013-06-16 21:33:00,66.0,31.0,-100.00,WSW,241,16.0,24.0,27,-99.99,,,-99.99,,2013-06-17 04:33:00,
2013-06-16 21:42:00,66.0,31.0,-100.00,WSW,241,16.0,24.0,27,-99.99,,,-99.99,,2013-06-17 04:42:00,
2013-06-16 21:53:00,66.0,31.0,-100.00,WSW,241,16.0,24.0,27,-99.99,,,-99.99,,2013-06-17 04:53:00,
2013-06-16 22:02:00,63.0,32.0,-100.00,North,-999,-999.0,-999.0,30,-99.99,,,-99.99,,2013-06-17 05:02:00,
2013-06-16 22:11:00,63.0,31.0,-100.00,SSW,213,7.0,15.0,30,-99.99,,,-99.99,,2013-06-17 05:11:00,
2013-06-16 22:22:00,63.0,31.0,-100.00,SSW,213,7.0,15.0,30,-99.99,,,-99.99,,2013-06-17 05:22:00,
2013-06-16 22:33:00,63.0,31.0,-100.00,SSW,213,7.0,15.0,30,-99.99,,,-99.99,,2013-06-17 05:33:00,
2013-06-16 22:44:00,62.0,35.0,-100.00,North,-999,-999.0,-999.0,36,-99.99,,,-99.99,,2013-06-17 05:44:00,
2013-06-16 22:53:00,62.0,35.0,-100.00,SSW,208,8.0,16.0,36,-99.99,,,-99.99,,2013-06-17 05:53:00,
2013-06-16 23:02:00,62.0,35.0,-100.00,SSW,208,8.0,16.0,36,-99.99,,,-99.99,,2013-06-17 06:02:00,
2013-06-16 23:12:00,62.0,35.0,-100.00,SSW,208,8.0,16.0,36,-99.99,,,-99.99,,2013-06-17 06:12:00,
2013-06-16 23:53:00,55.0,36.0,-100.00,ESE,116,6.0,8.0,49,-99.99,,,-99.99,,2013-06-17 06:53:00,